STARLINK-34372

Last updated on Thu Jul 03 2025 00:02:06 GMT+0000 (Coordinated Universal Time)

1 64301U 25123L 25183.58335648 -.01591585 00000+0 -29397-1 0 9994 2 64301 69.9995 120.0910 0003350 264.9136 320.1527 15.51852283 5070
UTC large
Height (km)
Speed (km/s)
/
Latitude / Longitude
Inclination (degrees)
Orbital Period (minutes)
Azimuth
Elevation
Range (km)
Doppler Factor

Next 0 passes for location: London (51.5072 / 0.1276)

Sorry there are no passes over London.